Year,Month,Day,Hour,Minute,Value (Times are PST for windspeed in km/hr)
2022,12,09,00,00,2.90
2022,12,09,00,01,3.20
2022,12,09,00,02,3.20
2022,12,09,00,03,2.30
2022,12,09,00,04,1.20
2022,12,09,00,05,0.50
2022,12,09,00,06,0.00
2022,12,09,00,07,0.00
2022,12,09,00,08,0.80
2022,12,09,00,09,0.10
2022,12,09,00,10,0.00
2022,12,09,00,11,0.00
2022,12,09,00,12,0.40
2022,12,09,00,13,0.40
2022,12,09,00,14,2.00
2022,12,09,00,15,0.80
2022,12,09,00,16,1.30
2022,12,09,00,17,0.00
2022,12,09,00,18,0.00
2022,12,09,00,19,0.10
2022,12,09,00,20,0.10
2022,12,09,00,21,0.20
2022,12,09,00,22,3.90
2022,12,09,00,23,1.30
2022,12,09,00,24,2.30
2022,12,09,00,25,1.00
2022,12,09,00,26,0.70
2022,12,09,00,27,0.60
2022,12,09,00,28,1.00
2022,12,09,00,29,1.10
2022,12,09,00,30,0.00
2022,12,09,00,31,0.00
2022,12,09,00,32,0.30
2022,12,09,00,33,0.00
2022,12,09,00,34,0.00
2022,12,09,00,35,0.00
2022,12,09,00,36,0.00
2022,12,09,00,37,0.00
2022,12,09,00,38,0.00
2022,12,09,00,39,0.00
2022,12,09,00,40,0.10
2022,12,09,00,41,0.00
2022,12,09,00,42,0.00
2022,12,09,00,43,0.00
2022,12,09,00,44,0.00
2022,12,09,00,45,0.20
2022,12,09,00,46,0.00
2022,12,09,00,47,0.00
2022,12,09,00,48,0.00
2022,12,09,00,49,0.00
2022,12,09,00,50,0.00
2022,12,09,00,51,0.00
2022,12,09,00,52,0.00
2022,12,09,00,53,0.00
2022,12,09,00,54,0.00
2022,12,09,00,55,0.00
2022,12,09,00,56,0.00
2022,12,09,00,57,0.00
2022,12,09,00,58,0.00
2022,12,09,00,59,0.00
2022,12,09,01,00,0.00
2022,12,09,01,01,0.00
2022,12,09,01,02,0.00
2022,12,09,01,03,0.00
2022,12,09,01,04,0.00
2022,12,09,01,05,0.00
2022,12,09,01,06,0.00
2022,12,09,01,07,0.00
2022,12,09,01,08,0.10
2022,12,09,01,09,0.20
2022,12,09,01,10,0.00
2022,12,09,01,11,0.00
2022,12,09,01,12,0.00
2022,12,09,01,13,0.00
2022,12,09,01,14,0.00
2022,12,09,01,15,0.00
2022,12,09,01,16,0.00
2022,12,09,01,17,0.00
2022,12,09,01,18,0.00
2022,12,09,01,19,0.00
2022,12,09,01,20,0.00
2022,12,09,01,21,0.00
2022,12,09,01,22,0.00
2022,12,09,01,23,0.00
2022,12,09,01,24,0.00
2022,12,09,01,25,0.00
2022,12,09,01,26,0.00
2022,12,09,01,27,0.00
2022,12,09,01,28,0.00
2022,12,09,01,29,0.00
2022,12,09,01,30,0.00
2022,12,09,01,31,0.00
2022,12,09,01,32,0.00
2022,12,09,01,33,0.00
2022,12,09,01,34,0.00
2022,12,09,01,35,0.00
2022,12,09,01,36,0.00
2022,12,09,01,37,0.00
2022,12,09,01,38,0.00
2022,12,09,01,39,0.00
2022,12,09,01,40,0.00
2022,12,09,01,41,0.00
2022,12,09,01,42,0.00
2022,12,09,01,43,0.00
2022,12,09,01,44,0.00
2022,12,09,01,45,0.00
2022,12,09,01,46,0.00
2022,12,09,01,47,0.00
2022,12,09,01,48,0.00
2022,12,09,01,49,0.00
2022,12,09,01,50,0.10
2022,12,09,01,51,0.00
2022,12,09,01,52,0.00
2022,12,09,01,53,0.00
2022,12,09,01,54,0.00
2022,12,09,01,55,0.00
2022,12,09,01,56,0.00
2022,12,09,01,57,0.00
2022,12,09,01,58,0.00
2022,12,09,01,59,0.00
2022,12,09,02,00,0.00
2022,12,09,02,01,0.00
2022,12,09,02,02,0.00
2022,12,09,02,03,0.00
2022,12,09,02,04,0.00
2022,12,09,02,05,0.00
2022,12,09,02,06,0.00
2022,12,09,02,07,0.00
2022,12,09,02,08,0.00
2022,12,09,02,09,0.20
2022,12,09,02,10,0.00
2022,12,09,02,11,0.00
2022,12,09,02,12,0.00
2022,12,09,02,13,0.00
2022,12,09,02,14,0.90
2022,12,09,02,15,2.00
2022,12,09,02,16,0.20
2022,12,09,02,17,0.70
2022,12,09,02,18,1.40
2022,12,09,02,19,1.10
2022,12,09,02,20,1.50
2022,12,09,02,21,2.10
2022,12,09,02,22,2.40
2022,12,09,02,23,2.00
2022,12,09,02,24,4.60
2022,12,09,02,25,6.60
2022,12,09,02,26,4.30
2022,12,09,02,27,4.70
2022,12,09,02,28,3.60
2022,12,09,02,29,4.90
2022,12,09,02,30,3.80
2022,12,09,02,31,3.70
2022,12,09,02,32,4.00
2022,12,09,02,33,4.40
2022,12,09,02,34,4.50
2022,12,09,02,35,3.30
2022,12,09,02,36,1.90
2022,12,09,02,37,1.60
2022,12,09,02,38,0.20
2022,12,09,02,39,0.10
2022,12,09,02,40,0.00
2022,12,09,02,41,0.10
2022,12,09,02,42,0.10
2022,12,09,02,43,0.40
2022,12,09,02,44,0.00
2022,12,09,02,45,0.30
2022,12,09,02,46,0.00
2022,12,09,02,47,0.30
2022,12,09,02,48,0.20
2022,12,09,02,49,2.10
2022,12,09,02,50,1.50
2022,12,09,02,51,2.00
2022,12,09,02,52,2.50
2022,12,09,02,53,0.20
2022,12,09,02,54,0.30
2022,12,09,02,55,0.30
2022,12,09,02,56,0.70
2022,12,09,02,57,0.00
2022,12,09,02,58,1.80
2022,12,09,02,59,2.60
2022,12,09,03,00,3.90
2022,12,09,03,01,1.60
2022,12,09,03,02,1.30
2022,12,09,03,03,0.50
2022,12,09,03,04,0.00
2022,12,09,03,05,0.00
2022,12,09,03,06,0.00
2022,12,09,03,07,0.00
2022,12,09,03,08,0.00
2022,12,09,03,09,0.40
2022,12,09,03,10,0.00
2022,12,09,03,11,0.00
2022,12,09,03,12,0.00
2022,12,09,03,13,0.00
2022,12,09,03,14,0.70
2022,12,09,03,15,1.90
2022,12,09,03,16,0.30
2022,12,09,03,17,3.00
2022,12,09,03,18,6.80
2022,12,09,03,19,5.20
2022,12,09,03,20,5.10
2022,12,09,03,21,2.70
2022,12,09,03,22,0.70
2022,12,09,03,23,0.70
2022,12,09,03,24,2.60
2022,12,09,03,25,0.00
2022,12,09,03,26,0.00
2022,12,09,03,27,0.00
2022,12,09,03,28,0.00
2022,12,09,03,29,0.00
2022,12,09,03,30,0.00
2022,12,09,03,31,0.00
2022,12,09,03,32,0.00
2022,12,09,03,33,0.10
2022,12,09,03,34,0.30
2022,12,09,03,35,0.60
2022,12,09,03,36,0.40
2022,12,09,03,37,2.20
2022,12,09,03,38,3.70
2022,12,09,03,39,4.50
2022,12,09,03,40,3.70
2022,12,09,03,41,2.10
2022,12,09,03,42,0.20
2022,12,09,03,43,2.80
2022,12,09,03,44,4.30
2022,12,09,03,45,5.90
2022,12,09,03,46,6.80
2022,12,09,03,47,4.20
2022,12,09,03,48,3.80
2022,12,09,03,49,2.90
2022,12,09,03,50,2.40
2022,12,09,03,51,4.90
2022,12,09,03,52,2.30
2022,12,09,03,53,6.40
2022,12,09,03,54,2.40
2022,12,09,03,55,3.90
2022,12,09,03,56,3.90
2022,12,09,03,57,3.50
2022,12,09,03,58,3.40
2022,12,09,03,59,2.10
2022,12,09,04,00,2.60
2022,12,09,04,01,3.50
2022,12,09,04,02,9.80
2022,12,09,04,03,16.00
2022,12,09,04,04,13.80
2022,12,09,04,05,12.80
2022,12,09,04,06,11.80
2022,12,09,04,07,10.80
2022,12,09,04,08,8.30
2022,12,09,04,09,3.40
2022,12,09,04,10,4.90
2022,12,09,04,11,4.00
2022,12,09,04,12,3.60
2022,12,09,04,13,5.70
2022,12,09,04,14,3.70
2022,12,09,04,15,5.50
2022,12,09,04,16,5.40
2022,12,09,04,17,4.30
2022,12,09,04,18,4.40
2022,12,09,04,19,3.70
2022,12,09,04,20,4.80
2022,12,09,04,21,4.70
2022,12,09,04,22,5.90
2022,12,09,04,23,5.10
2022,12,09,04,24,4.40
2022,12,09,04,25,4.80
2022,12,09,04,26,4.60
2022,12,09,04,27,3.70
2022,12,09,04,28,1.20
2022,12,09,04,29,2.00
2022,12,09,04,30,2.40
2022,12,09,04,31,2.10
2022,12,09,04,32,1.60
2022,12,09,04,33,3.70
2022,12,09,04,34,4.50
2022,12,09,04,35,6.40
2022,12,09,04,36,3.30
2022,12,09,04,37,3.30
2022,12,09,04,38,8.80
2022,12,09,04,39,15.30
2022,12,09,04,40,15.80
2022,12,09,04,41,14.70
2022,12,09,04,42,18.70
2022,12,09,04,43,14.30
2022,12,09,04,44,15.00
2022,12,09,04,45,16.20
2022,12,09,04,46,14.70
2022,12,09,04,47,13.60
2022,12,09,04,48,13.00
2022,12,09,04,49,11.00
2022,12,09,04,50,15.70
2022,12,09,04,51,15.60
2022,12,09,04,52,16.00
2022,12,09,04,53,13.40
2022,12,09,04,54,13.00
2022,12,09,04,55,16.10
2022,12,09,04,56,13.90
2022,12,09,04,57,15.90
2022,12,09,04,58,13.70
2022,12,09,04,59,16.20
2022,12,09,05,00,15.90
2022,12,09,05,01,17.40
2022,12,09,05,02,15.60
2022,12,09,05,03,14.20
2022,12,09,05,04,15.40
2022,12,09,05,05,12.40
2022,12,09,05,06,17.00
2022,12,09,05,07,15.10
2022,12,09,05,08,15.80
2022,12,09,05,09,14.50
2022,12,09,05,10,16.00
2022,12,09,05,11,15.00
2022,12,09,05,12,15.80
2022,12,09,05,13,17.20
2022,12,09,05,14,17.10
2022,12,09,05,15,16.20
2022,12,09,05,16,13.90
2022,12,09,05,17,14.30
2022,12,09,05,18,14.70
2022,12,09,05,19,14.70
2022,12,09,05,20,15.20
2022,12,09,05,21,16.20
2022,12,09,05,22,13.10
2022,12,09,05,23,14.80
2022,12,09,05,24,14.80
2022,12,09,05,25,15.00
2022,12,09,05,26,15.30
2022,12,09,05,27,14.10
2022,12,09,05,28,11.80
2022,12,09,05,29,15.60
2022,12,09,05,30,14.40
2022,12,09,05,31,15.10
2022,12,09,05,32,19.40
2022,12,09,05,33,15.90
2022,12,09,05,34,17.90
2022,12,09,05,35,15.80
2022,12,09,05,36,15.30
2022,12,09,05,37,15.30
2022,12,09,05,38,14.10
2022,12,09,05,39,15.80
2022,12,09,05,40,15.60
2022,12,09,05,41,15.70
2022,12,09,05,42,15.90
2022,12,09,05,43,14.10
2022,12,09,05,44,14.80
2022,12,09,05,45,14.10
2022,12,09,05,46,15.60
2022,12,09,05,47,13.50
2022,12,09,05,48,12.30
2022,12,09,05,49,10.80
2022,12,09,05,50,11.20
2022,12,09,05,51,9.80
2022,12,09,05,52,12.60
2022,12,09,05,53,13.70
2022,12,09,05,54,15.80
2022,12,09,05,55,15.40
2022,12,09,05,56,15.60
2022,12,09,05,57,15.40
2022,12,09,05,58,14.70
2022,12,09,05,59,16.80
2022,12,09,06,00,15.20
2022,12,09,06,01,14.00
2022,12,09,06,02,15.70
2022,12,09,06,03,13.60
2022,12,09,06,04,13.20
2022,12,09,06,05,14.50
2022,12,09,06,06,16.40
2022,12,09,06,07,16.50
2022,12,09,06,08,15.20
2022,12,09,06,09,14.20
2022,12,09,06,10,17.30
2022,12,09,06,11,15.00
2022,12,09,06,12,16.40
2022,12,09,06,13,16.30
2022,12,09,06,14,16.60
2022,12,09,06,15,15.30
2022,12,09,06,16,15.30
2022,12,09,06,17,15.30
2022,12,09,06,18,17.90
2022,12,09,06,19,16.70
2022,12,09,06,20,17.70
2022,12,09,06,21,18.90
2022,12,09,06,22,19.20
2022,12,09,06,23,14.80
2022,12,09,06,24,16.20
2022,12,09,06,25,18.20
2022,12,09,06,26,19.00
2022,12,09,06,27,19.20
2022,12,09,06,28,16.70
2022,12,09,06,29,16.70
2022,12,09,06,30,17.00
2022,12,09,06,31,15.00
2022,12,09,06,32,17.70
2022,12,09,06,33,15.90
2022,12,09,06,34,18.10
2022,12,09,06,35,16.40
2022,12,09,06,36,15.70
2022,12,09,06,37,20.90
2022,12,09,06,38,18.00
2022,12,09,06,39,19.40
2022,12,09,06,40,17.20
2022,12,09,06,41,19.50
2022,12,09,06,42,20.50
2022,12,09,06,43,20.20
2022,12,09,06,44,19.50
2022,12,09,06,45,20.60
2022,12,09,06,46,20.10
2022,12,09,06,47,16.50
2022,12,09,06,48,16.70
2022,12,09,06,49,17.20
2022,12,09,06,50,17.20
2022,12,09,06,51,16.70
2022,12,09,06,52,18.10
2022,12,09,06,53,15.90
2022,12,09,06,54,16.80
2022,12,09,06,55,15.30
2022,12,09,06,56,15.90
2022,12,09,06,57,16.20
2022,12,09,06,58,15.20
2022,12,09,06,59,15.60
2022,12,09,07,00,14.70
2022,12,09,07,01,16.00
2022,12,09,07,02,14.60
2022,12,09,07,03,16.90
2022,12,09,07,04,17.30
2022,12,09,07,05,18.40
2022,12,09,07,06,16.90
2022,12,09,07,07,16.20
2022,12,09,07,08,17.60
2022,12,09,07,09,15.80
2022,12,09,07,10,15.70
2022,12,09,07,11,13.90
2022,12,09,07,12,15.00
2022,12,09,07,13,16.40
2022,12,09,07,14,17.50
2022,12,09,07,15,18.90
2022,12,09,07,16,18.10
2022,12,09,07,17,15.70
2022,12,09,07,18,16.70
2022,12,09,07,19,17.30
2022,12,09,07,20,17.20
2022,12,09,07,21,17.20
2022,12,09,07,22,16.80
2022,12,09,07,23,16.20
2022,12,09,07,24,16.80
2022,12,09,07,25,14.70
2022,12,09,07,26,17.20
2022,12,09,07,27,15.00
2022,12,09,07,28,16.40
2022,12,09,07,29,13.80
2022,12,09,07,30,12.50
2022,12,09,07,31,14.30
2022,12,09,07,32,14.80
2022,12,09,07,33,12.10
2022,12,09,07,34,11.40
2022,12,09,07,35,13.80
2022,12,09,07,36,15.30
2022,12,09,07,37,14.10
2022,12,09,07,38,14.70
2022,12,09,07,39,14.00
2022,12,09,07,40,12.40
2022,12,09,07,41,12.30
2022,12,09,07,42,14.50
2022,12,09,07,43,12.20
2022,12,09,07,44,6.70
2022,12,09,07,45,9.80
2022,12,09,07,46,12.10
2022,12,09,07,47,11.70
2022,12,09,07,48,9.10
2022,12,09,07,49,12.50
2022,12,09,07,50,12.00
2022,12,09,07,51,11.90
2022,12,09,07,52,12.70
2022,12,09,07,53,14.80
2022,12,09,07,54,15.20
2022,12,09,07,55,13.20
2022,12,09,07,56,14.00
2022,12,09,07,57,12.60
2022,12,09,07,58,13.20
2022,12,09,07,59,12.70
2022,12,09,08,00,16.60
2022,12,09,08,01,14.20
2022,12,09,08,02,13.60
2022,12,09,08,03,14.50
2022,12,09,08,04,15.10
2022,12,09,08,05,17.10
2022,12,09,08,06,16.60
2022,12,09,08,07,16.20
2022,12,09,08,08,16.10
2022,12,09,08,09,16.80
2022,12,09,08,10,19.10
2022,12,09,08,11,18.30
2022,12,09,08,12,16.00
2022,12,09,08,13,18.20
2022,12,09,08,14,19.20
2022,12,09,08,15,20.30
2022,12,09,08,16,20.60
2022,12,09,08,17,18.20
2022,12,09,08,18,17.50
2022,12,09,08,19,18.50
2022,12,09,08,20,16.60
2022,12,09,08,21,14.90
2022,12,09,08,22,15.70
2022,12,09,08,23,17.00
2022,12,09,08,24,16.00
2022,12,09,08,25,13.80
2022,12,09,08,26,13.70
2022,12,09,08,27,14.40
2022,12,09,08,28,14.60
2022,12,09,08,29,14.30
2022,12,09,08,30,13.70
2022,12,09,08,31,15.80
2022,12,09,08,32,16.30
2022,12,09,08,33,18.70
2022,12,09,08,34,14.50
2022,12,09,08,35,14.90
2022,12,09,08,36,12.10
2022,12,09,08,37,13.50
2022,12,09,08,38,13.50
2022,12,09,08,39,12.10
2022,12,09,08,40,12.60
2022,12,09,08,41,13.70
2022,12,09,08,42,12.20
2022,12,09,08,43,13.50
2022,12,09,08,44,12.40
2022,12,09,08,45,13.90
2022,12,09,08,46,12.80
2022,12,09,08,47,13.60
2022,12,09,08,48,11.10
2022,12,09,08,49,12.20
2022,12,09,08,50,12.90
2022,12,09,08,51,11.00
2022,12,09,08,52,10.90
2022,12,09,08,53,10.60
2022,12,09,08,54,12.90
2022,12,09,08,55,13.50
2022,12,09,08,56,12.30
2022,12,09,08,57,13.20
2022,12,09,08,58,11.40
2022,12,09,08,59,12.10
2022,12,09,09,00,16.10
2022,12,09,09,01,17.30
2022,12,09,09,02,16.90
2022,12,09,09,03,16.40
2022,12,09,09,04,12.00
2022,12,09,09,05,15.90
2022,12,09,09,06,16.90
2022,12,09,09,07,15.50
2022,12,09,09,08,14.80
2022,12,09,09,09,15.10
2022,12,09,09,10,15.30
2022,12,09,09,11,15.10
2022,12,09,09,12,15.30
2022,12,09,09,13,16.60
2022,12,09,09,14,17.10
2022,12,09,09,15,16.70
2022,12,09,09,16,15.60
2022,12,09,09,17,16.30
2022,12,09,09,18,18.20
2022,12,09,09,19,17.30
2022,12,09,09,20,17.00
2022,12,09,09,21,14.20
2022,12,09,09,22,15.90
2022,12,09,09,23,15.70
2022,12,09,09,24,14.50
2022,12,09,09,25,15.30
2022,12,09,09,26,14.10
2022,12,09,09,27,15.10
2022,12,09,09,28,15.90
2022,12,09,09,29,14.90
2022,12,09,09,30,15.40
2022,12,09,09,31,14.40
2022,12,09,09,32,14.80
2022,12,09,09,33,14.10
2022,12,09,09,34,16.40
2022,12,09,09,35,14.00
2022,12,09,09,36,14.00
2022,12,09,09,37,12.50
2022,12,09,09,38,15.00
2022,12,09,09,39,10.90
2022,12,09,09,40,13.80
2022,12,09,09,41,13.00
2022,12,09,09,42,11.70
2022,12,09,09,43,11.60
2022,12,09,09,44,15.40
2022,12,09,09,45,15.20
2022,12,09,09,46,14.20
2022,12,09,09,47,16.00
2022,12,09,09,48,13.60
2022,12,09,09,49,14.30
2022,12,09,09,50,16.30
2022,12,09,09,51,18.90
2022,12,09,09,52,17.50
2022,12,09,09,53,16.30
2022,12,09,09,54,15.00
2022,12,09,09,55,15.70
2022,12,09,09,56,16.20
2022,12,09,09,57,12.90
2022,12,09,09,58,15.10
2022,12,09,09,59,17.90
2022,12,09,10,00,14.50
2022,12,09,10,01,13.90
2022,12,09,10,02,15.60
2022,12,09,10,03,15.80
2022,12,09,10,04,16.50
2022,12,09,10,05,15.60
2022,12,09,10,06,12.50
2022,12,09,10,07,13.80
2022,12,09,10,08,13.50
2022,12,09,10,09,13.00
2022,12,09,10,10,12.40
2022,12,09,10,11,12.90
2022,12,09,10,12,16.40
2022,12,09,10,13,19.20
2022,12,09,10,14,18.30
2022,12,09,10,15,16.80
2022,12,09,10,16,17.90
2022,12,09,10,17,17.20
2022,12,09,10,18,20.30
2022,12,09,10,19,18.70
2022,12,09,10,20,19.70
2022,12,09,10,21,17.90
2022,12,09,10,22,18.70
2022,12,09,10,23,16.60
2022,12,09,10,24,18.10
2022,12,09,10,25,15.80
2022,12,09,10,26,13.40
2022,12,09,10,27,15.20
2022,12,09,10,28,13.50
2022,12,09,10,29,16.60
2022,12,09,10,30,17.70
2022,12,09,10,31,14.80
2022,12,09,10,32,16.80
2022,12,09,10,33,14.40
2022,12,09,10,34,17.00
2022,12,09,10,35,18.40
2022,12,09,10,36,16.90
2022,12,09,10,37,15.50
2022,12,09,10,38,16.00
2022,12,09,10,39,16.70
2022,12,09,10,40,16.40
2022,12,09,10,41,15.40
2022,12,09,10,42,16.40
2022,12,09,10,43,15.80
2022,12,09,10,44,17.90
2022,12,09,10,45,15.00
2022,12,09,10,46,16.40
2022,12,09,10,47,18.40
2022,12,09,10,48,15.90
2022,12,09,10,49,13.00
2022,12,09,10,50,13.70
2022,12,09,10,51,14.80
2022,12,09,10,52,13.90
2022,12,09,10,53,13.80
2022,12,09,10,54,15.30
2022,12,09,10,55,15.30
2022,12,09,10,56,15.30
2022,12,09,10,57,17.60
2022,12,09,10,58,18.60
2022,12,09,10,59,23.10
2022,12,09,11,00,20.50
2022,12,09,11,01,22.80
2022,12,09,11,02,20.60
2022,12,09,11,03,19.20
2022,12,09,11,04,20.90
2022,12,09,11,05,19.40
2022,12,09,11,06,20.40
2022,12,09,11,07,22.20
2022,12,09,11,08,20.80
2022,12,09,11,09,22.20
2022,12,09,11,10,21.10
2022,12,09,11,11,20.30
2022,12,09,11,12,25.00
2022,12,09,11,13,24.40
2022,12,09,11,14,24.60
2022,12,09,11,15,25.80
2022,12,09,11,16,25.20
2022,12,09,11,17,24.30
2022,12,09,11,18,26.00
2022,12,09,11,19,22.30
2022,12,09,11,20,22.80
2022,12,09,11,21,19.70
2022,12,09,11,22,18.20
2022,12,09,11,23,19.60
2022,12,09,11,24,22.10
2022,12,09,11,25,22.40
2022,12,09,11,26,24.30
2022,12,09,11,27,23.10
2022,12,09,11,28,20.80
2022,12,09,11,29,24.10
2022,12,09,11,30,22.70
2022,12,09,11,31,20.00
2022,12,09,11,32,21.30
2022,12,09,11,33,22.20
2022,12,09,11,34,21.90
2022,12,09,11,35,19.50
2022,12,09,11,36,18.80
2022,12,09,11,37,19.40
2022,12,09,11,38,19.10
2022,12,09,11,39,20.90
2022,12,09,11,40,22.20
2022,12,09,11,41,19.70
2022,12,09,11,42,16.80
2022,12,09,11,43,19.40
2022,12,09,11,44,17.00
2022,12,09,11,45,17.30
2022,12,09,11,46,22.00
2022,12,09,11,47,16.30
2022,12,09,11,48,18.20
2022,12,09,11,49,16.80
2022,12,09,11,50,13.50
2022,12,09,11,51,16.00
2022,12,09,11,52,17.50
2022,12,09,11,53,15.90
2022,12,09,11,54,13.90
2022,12,09,11,55,13.80
2022,12,09,11,56,16.30
2022,12,09,11,57,13.90
2022,12,09,11,58,11.80
2022,12,09,11,59,14.80
2022,12,09,12,00,12.40
2022,12,09,12,01,9.20
2022,12,09,12,02,13.20
2022,12,09,12,03,12.30
2022,12,09,12,04,13.10
2022,12,09,12,05,16.00
2022,12,09,12,06,16.60
2022,12,09,12,07,21.00
2022,12,09,12,08,17.40
2022,12,09,12,09,16.90
2022,12,09,12,10,20.00
2022,12,09,12,11,15.40
2022,12,09,12,12,16.30
2022,12,09,12,13,15.30
2022,12,09,12,14,17.00
2022,12,09,12,15,21.60
2022,12,09,12,16,16.60
2022,12,09,12,17,17.70
2022,12,09,12,18,16.40
2022,12,09,12,19,14.90
2022,12,09,12,20,17.00
2022,12,09,12,21,16.50
2022,12,09,12,22,14.60
2022,12,09,12,23,17.30
2022,12,09,12,24,18.80
2022,12,09,12,25,18.90
2022,12,09,12,26,21.40
2022,12,09,12,27,22.70
2022,12,09,12,28,22.50
2022,12,09,12,29,24.70
2022,12,09,12,30,21.50
2022,12,09,12,31,17.20
2022,12,09,12,32,18.70
2022,12,09,12,33,23.50
2022,12,09,12,34,26.70
2022,12,09,12,35,23.10
2022,12,09,12,36,18.50
2022,12,09,12,37,17.20
2022,12,09,12,38,19.90
2022,12,09,12,39,19.10
2022,12,09,12,40,23.80
2022,12,09,12,41,32.70
2022,12,09,12,42,30.20
2022,12,09,12,43,31.10
2022,12,09,12,44,28.30
2022,12,09,12,45,26.90
2022,12,09,12,46,22.20
2022,12,09,12,47,22.60
2022,12,09,12,48,20.00
2022,12,09,12,49,22.90
2022,12,09,12,50,24.50
2022,12,09,12,51,25.30
2022,12,09,12,52,22.80
2022,12,09,12,53,23.00
2022,12,09,12,54,22.60
2022,12,09,12,55,20.50
2022,12,09,12,56,17.90
2022,12,09,12,57,27.00
2022,12,09,12,58,26.00
2022,12,09,12,59,22.50
2022,12,09,13,00,21.10
2022,12,09,13,01,18.40
2022,12,09,13,02,21.30
2022,12,09,13,03,20.10
2022,12,09,13,04,25.10
2022,12,09,13,05,22.90
2022,12,09,13,06,20.60
2022,12,09,13,07,23.40
2022,12,09,13,08,22.60
2022,12,09,13,09,25.10
2022,12,09,13,10,33.30
2022,12,09,13,11,33.60
2022,12,09,13,12,37.10
2022,12,09,13,13,32.10
2022,12,09,13,14,26.30
2022,12,09,13,15,29.00
2022,12,09,13,16,30.60
2022,12,09,13,17,28.80
2022,12,09,13,18,28.10
2022,12,09,13,19,31.00
2022,12,09,13,20,32.10
2022,12,09,13,21,34.50
2022,12,09,13,22,29.50
2022,12,09,13,23,31.40
2022,12,09,13,24,29.60
2022,12,09,13,25,29.70
2022,12,09,13,26,29.00
2022,12,09,13,27,29.40
2022,12,09,13,28,33.60
2022,12,09,13,29,34.40
2022,12,09,13,30,35.40
2022,12,09,13,31,31.70
2022,12,09,13,32,31.80
2022,12,09,13,33,29.30
2022,12,09,13,34,30.90
2022,12,09,13,35,29.60
2022,12,09,13,36,29.60
2022,12,09,13,37,30.80
2022,12,09,13,38,30.90
2022,12,09,13,39,31.20
2022,12,09,13,40,31.80
2022,12,09,13,41,33.40
2022,12,09,13,42,30.90
2022,12,09,13,43,28.20
2022,12,09,13,44,32.70
2022,12,09,13,45,30.20
2022,12,09,13,46,32.00
2022,12,09,13,47,31.20
2022,12,09,13,48,31.40
2022,12,09,13,49,34.60
2022,12,09,13,50,33.30
2022,12,09,13,51,32.40
2022,12,09,13,52,37.30
2022,12,09,13,53,34.40
2022,12,09,13,54,33.30
2022,12,09,13,55,32.00
2022,12,09,13,56,33.30
2022,12,09,13,57,37.20
2022,12,09,13,58,36.70
2022,12,09,13,59,29.80
2022,12,09,14,00,29.40
2022,12,09,14,01,31.20
2022,12,09,14,02,29.00
2022,12,09,14,03,34.40
2022,12,09,14,04,33.30
2022,12,09,14,05,33.70
2022,12,09,14,06,31.20
2022,12,09,14,07,32.70
2022,12,09,14,08,29.80
2022,12,09,14,09,33.50
2022,12,09,14,10,38.30
2022,12,09,14,11,32.80
2022,12,09,14,12,35.50
2022,12,09,14,13,31.40
2022,12,09,14,14,34.70
2022,12,09,14,15,35.50
2022,12,09,14,16,30.50
2022,12,09,14,17,32.10
2022,12,09,14,18,35.50
2022,12,09,14,19,36.10
2022,12,09,14,20,36.30
2022,12,09,14,21,31.20
2022,12,09,14,22,37.00
2022,12,09,14,23,35.50
2022,12,09,14,24,36.10
2022,12,09,14,25,32.70
2022,12,09,14,26,32.50
2022,12,09,14,27,33.90
2022,12,09,14,28,35.10
2022,12,09,14,29,35.90
2022,12,09,14,30,32.70
2022,12,09,14,31,33.90
2022,12,09,14,32,34.60
2022,12,09,14,33,34.80
2022,12,09,14,34,33.10
2022,12,09,14,35,34.40
2022,12,09,14,36,32.50
2022,12,09,14,37,33.90
2022,12,09,14,38,34.00
2022,12,09,14,39,30.50
2022,12,09,14,40,35.10
2022,12,09,14,41,34.10
2022,12,09,14,42,36.40
2022,12,09,14,43,33.20
2022,12,09,14,44,32.00
2022,12,09,14,45,37.60
2022,12,09,14,46,32.80
2022,12,09,14,47,36.10
2022,12,09,14,48,33.90
2022,12,09,14,49,37.90
2022,12,09,14,50,33.60
2022,12,09,14,51,29.00
2022,12,09,14,52,34.00
2022,12,09,14,53,31.40
2022,12,09,14,54,33.30
2022,12,09,14,55,40.60
2022,12,09,14,56,35.90
2022,12,09,14,57,31.00
2022,12,09,14,58,33.30
2022,12,09,14,59,32.20
2022,12,09,15,00,34.30
2022,12,09,15,01,33.50
2022,12,09,15,02,35.20
2022,12,09,15,03,33.10
2022,12,09,15,04,35.00
2022,12,09,15,05,29.40
2022,12,09,15,06,38.30
2022,12,09,15,07,33.90
2022,12,09,15,08,33.20
2022,12,09,15,09,31.50
2022,12,09,15,10,35.30
2022,12,09,15,11,36.50
2022,12,09,15,12,32.40
2022,12,09,15,13,34.10
2022,12,09,15,14,33.90
2022,12,09,15,15,33.90
2022,12,09,15,16,34.10
2022,12,09,15,17,29.30
2022,12,09,15,18,33.10
2022,12,09,15,19,36.10
2022,12,09,15,20,38.40
2022,12,09,15,21,40.60
2022,12,09,15,22,35.20
2022,12,09,15,23,33.20
2022,12,09,15,24,38.20
2022,12,09,15,25,36.50
2022,12,09,15,26,40.90
2022,12,09,15,27,41.50
2022,12,09,15,28,38.70
2022,12,09,15,29,35.30
2022,12,09,15,30,37.20
2022,12,09,15,31,34.20
2022,12,09,15,32,35.10
2022,12,09,15,33,39.80
2022,12,09,15,34,42.00
2022,12,09,15,35,38.60
2022,12,09,15,36,39.40
2022,12,09,15,37,40.50
2022,12,09,15,38,39.90
2022,12,09,15,39,38.50
2022,12,09,15,40,32.20
2022,12,09,15,41,32.50
2022,12,09,15,42,38.70
2022,12,09,15,43,39.40
2022,12,09,15,44,35.40
2022,12,09,15,45,36.40
2022,12,09,15,46,35.60
2022,12,09,15,47,35.70
2022,12,09,15,48,35.30
2022,12,09,15,49,36.50
2022,12,09,15,50,35.40
2022,12,09,15,51,35.40
2022,12,09,15,52,38.00
2022,12,09,15,53,33.50
2022,12,09,15,54,33.70
2022,12,09,15,55,36.60
2022,12,09,15,56,37.70
2022,12,09,15,57,44.00
2022,12,09,15,58,35.80
2022,12,09,15,59,36.70
2022,12,09,16,00,35.10
2022,12,09,16,01,37.10
2022,12,09,16,02,35.60
2022,12,09,16,03,34.30
2022,12,09,16,04,37.50
2022,12,09,16,05,34.30
2022,12,09,16,06,30.10
2022,12,09,16,07,28.80
2022,12,09,16,08,33.40
2022,12,09,16,09,32.80
2022,12,09,16,10,33.10
2022,12,09,16,11,30.30
2022,12,09,16,12,27.00
2022,12,09,16,13,28.20
2022,12,09,16,14,31.30
2022,12,09,16,15,28.40
2022,12,09,16,16,31.10
2022,12,09,16,17,30.60
2022,12,09,16,18,28.00
2022,12,09,16,19,27.40
2022,12,09,16,20,32.30
2022,12,09,16,21,31.20
2022,12,09,16,22,27.40
2022,12,09,16,23,35.20
2022,12,09,16,24,31.30
2022,12,09,16,25,35.40
2022,12,09,16,26,34.70
2022,12,09,16,27,35.50
2022,12,09,16,28,31.00
2022,12,09,16,29,28.30
2022,12,09,16,30,25.00
2022,12,09,16,31,29.70
2022,12,09,16,32,28.30
2022,12,09,16,33,29.40
2022,12,09,16,34,26.30
2022,12,09,16,35,26.40
2022,12,09,16,36,28.70
2022,12,09,16,37,31.40
2022,12,09,16,38,27.80
2022,12,09,16,39,31.40
2022,12,09,16,40,29.20
2022,12,09,16,41,26.80
2022,12,09,16,42,28.60
2022,12,09,16,43,31.10
2022,12,09,16,44,31.70
2022,12,09,16,45,33.60
2022,12,09,16,46,30.40
2022,12,09,16,47,29.20
2022,12,09,16,48,28.40
2022,12,09,16,49,29.30
2022,12,09,16,50,27.30
2022,12,09,16,51,31.10
2022,12,09,16,52,31.10
2022,12,09,16,53,30.90
2022,12,09,16,54,32.30
2022,12,09,16,55,30.40
2022,12,09,16,56,33.10
2022,12,09,16,57,25.80
2022,12,09,16,58,21.70
2022,12,09,16,59,24.90
2022,12,09,17,00,21.20
2022,12,09,17,01,21.20
2022,12,09,17,02,19.10
2022,12,09,17,03,23.80
2022,12,09,17,04,24.70
2022,12,09,17,05,20.50
2022,12,09,17,06,22.80
2022,12,09,17,07,30.80
2022,12,09,17,08,28.60
2022,12,09,17,09,32.10
2022,12,09,17,10,27.50
2022,12,09,17,11,26.40
2022,12,09,17,12,30.30
2022,12,09,17,13,32.70
2022,12,09,17,14,23.70
2022,12,09,17,15,25.10
2022,12,09,17,16,25.20
2022,12,09,17,17,27.80
2022,12,09,17,18,27.00
2022,12,09,17,19,28.80
2022,12,09,17,20,35.00
2022,12,09,17,21,35.40
2022,12,09,17,22,32.70
2022,12,09,17,23,35.80
2022,12,09,17,24,31.60
2022,12,09,17,25,30.80
2022,12,09,17,26,32.80
2022,12,09,17,27,32.80
2022,12,09,17,28,31.40
2022,12,09,17,29,30.10
2022,12,09,17,30,31.90
2022,12,09,17,31,32.40